Weather Roundup
Issued by NWS

Home | Current Version | Previous Version | Graphics & Text | Print | Product List | Glossary Off
Versions: 1 2 3 4 5 6 7 8 9 10 11 12 13 14 15 16 17 18 19 20 21 22 23 24 25 26 27 28 29 30 31 32 33 34 35 36 37 38 39 40 41 42 43 44 45 46 47 48 49 50

000
NZUS93 KARX 222359
HRRWXR

CURRENT HOURLY OBSERVATIONS ACROSS
MUCH OF THE UPPER MISSISSIPPI VALLEY
NATIONAL WEATHER SERVICE LA CROSSE WI
700 PM CDT MON SEP 22 2014


...SOUTHEAST MINNESOTA...


CITY           SKY/WX    TMP DP  RH WIND       PRES   REMARKS
ROCHESTER      CLEAR     61  52  72 SW6       30.19F
ROCHESTER/MAYO FAIR      68  46  45 SW6       30.18F
WINONA         CLEAR     63  54  72 CALM      30.18S
AUSTIN         CLEAR     64  48  55 CALM      30.19S
ALBERT LEA     CLEAR     66  50  55 CALM      30.19S
DODGE CENTER   CLEAR     64  52  63 SW5       30.19S
PRESTON        CLEAR     64  53  68 SW5       30.19F
OWATONNA       CLEAR     64  50  59 S5        30.17F
FARIBAULT      CLEAR     66  52  59 CALM      30.17F
$$

...ELSEWHERE IN MINNESOTA...


CITY           SKY/WX    TMP DP  RH WIND       PRES   REMARKS
MINNEAPOLIS    CLEAR     69  49  48 S6        30.15F
INTNL FALLS    CLEAR     65  51  60 SW5       30.05S
DULUTH         CLEAR     65  50  58 W8        30.11S
RED WING       CLEAR     66  52  59 CALM      30.15S
REDWOOD FALLS  CLEAR     69  49  48 S7        30.13F
MANKATO        CLEAR     66  46  48 S5        30.16F
WORTHINGTON    CLEAR     66  46  48 S6        30.18S
FAIRMONT       PTCLDY    68  46  45 S3        30.17F
$$

...SOUTHWEST WISCONSIN...


CITY           SKY/WX    TMP DP  RH WIND       PRES   REMARKS
LA CROSSE      CLEAR     65  54  67 CALM      30.17F
PRAIRIE DU CHI CLEAR     68  49  50 CALM      30.19S
BOSCOBEL       CLEAR     64  52  64 CALM      30.20S
LONE ROCK      NOT AVBL
PLATTEVILLE    CLEAR     64  49  57 W5        30.22S
FORT MC COY    CLEAR     64  52  63 CALM      30.19S
VIROQUA        FAIR      64  50  61 CALM      30.20S
WIS DELLS      CLEAR     64  49  58 W3        30.20S
$$

...ELSEWHERE IN WISCONSIN...


CITY           SKY/WX    TMP DP  RH WIND       PRES   REMARKS
MILWAUKEE      PTCLDY    66  45  46 W5        30.20S
MADISON        PTCLDY    60  51  72 CALM      30.20F
GREEN BAY      CLEAR     60  51  72 SW3       30.16S
EAU CLAIRE     NOT AVBL
BLACK RVR FLS  FAIR      60  53  80 CALM      30.18S
MEDFORD        CLEAR     60  51  71 SW3       30.17S
WAUSAU         CLEAR     60  49  66 W6        30.16S
WIS RAPIDS     CLEAR     62  50  64 W5        30.19S
MARSHFIELD     CLEAR     61  51  70 W5        30.18S
RICE LAKE      CLEAR     64  50  60 CALM      30.17F
$$

...NORTHEAST IOWA...


CITY           SKY/WX    TMP DP  RH WIND       PRES   REMARKS
WATERLOO       CLEAR     64  50  60 S5        30.20R
DUBUQUE        CLEAR     61  49  64 CALM      30.22F
DECORAH        CLEAR     66  50  55 CALM      30.19S
MASON CITY     CLEAR     63  50  62 S3        30.21S
CHARLES CITY   CLEAR     64  48  55 SW5       30.21S
OELWEIN        CLEAR     66  48  52 SW6       30.21F
$$

...ELSEWHERE IN IOWA...


CITY           SKY/WX    TMP DP  RH WIND       PRES   REMARKS
DES MOINES     PTCLDY    69  50  50 S6        30.21S
IOWA CITY      CLEAR     66  52  60 S3        30.23F
FORT DODGE     CLEAR     63  52  67 CALM      30.20S
MARSHALLTOWN   PTCLDY    66  51  58 S6        30.21S
CEDAR RAPIDS   CLEAR     62  50  64 S3        30.22S
$$

...NORTHERN ILLINOIS...


CITY           SKY/WX    TMP DP  RH WIND       PRES   REMARKS
CHICAGO-OHARE  CLEAR     65  43  44 CALM      30.23R
DUPAGE         CLEAR     61  46  57 W3        30.22S
CHICAGO-MIDWAY CLEAR     62  46  55 SE8       30.23S
MOLINE         CLEAR     61  50  67 S3        30.23S
ROCKFORD       PTCLDY    63  46  54 SW5       30.25R
STERLING       CLEAR     59  46  63 CALM      30.23S
PEORIA         CLEAR     63  49  60 CALM      30.24F
$$

NOTE: "FAIR" INDICATES FEW OR NO CLOUDS BELOW 12,000 FEET WITH NO
SIGNIFICANT WEATHER AND/OR OBSTRUCTIONS TO VISIBILITY. WIND
SPEEDS ARE IN MILES-PER-HOUR.



USA.gov is the U.S. government's official web portal to all federal, state and local government web resources and services.